Location: Seattle
(47.6064°N, 122.3308°W)
Time: 04:22:17
(UTC-07:00)

Explorer 7 - Pass Details

Date: 08 August 2021
Orbit: 484 x 676 km, 50.3° (Epoch: 15 September)

Event Time Altitude Azimuth Distance (km) Brightness Sun altitude
Exits shadow 05:06:04 - 261° (W) 1,777 8.9 -8.2°
Reaches altitude 10° 05:06:20 10° 262° (W) 1,668 8.7 -8.1°
Maximum altitude 05:10:05 70° 347° (NNW) 528 6.8 -7.6°
Drops below altitude 10° 05:13:57 10° 71° (ENE) 1,722 10.9 -7.1°
Sets 05:16:12 0° 74° (ENE) 2,634 12.1 -6.8°
